Time,TemperatureF,DewpointF,PressureIn,WindDirection,WindDirectionDegrees,WindSpeedMPH,WindSpeedGustMPH,Humidity,HourlyPrecipIn,Conditions,Clouds,dailyrainin,SoftwareType,DateUTC
2013-02-18 00:02:00,15.0,-99.9,30.01,SSW,209,2.0,5.0,-999,-99.99,,,-99.99,,2013-02-18 06:02:00,
2013-02-18 00:32:00,17.0,-99.9,30.00,South,177,3.0,6.0,-999,-99.99,,,-99.99,,2013-02-18 06:32:00,
2013-02-18 01:02:00,-999.0,-99.9,-100.00,ESE,116,2.0,3.0,-999,-99.99,,,-99.99,,2013-02-18 07:02:00,
2013-02-18 01:11:00,-999.0,-99.9,29.98,ESE,116,2.0,3.0,-999,-99.99,,,-99.99,,2013-02-18 07:11:00,
2013-02-18 01:32:00,17.0,-99.9,29.98,SSE,165,1.0,2.0,-999,-99.99,,,-99.99,,2013-02-18 07:32:00,
2013-02-18 02:33:00,-999.0,-99.9,-100.00,ESE,118,4.0,6.0,-999,-99.99,,,-99.99,,2013-02-18 08:33:00,
2013-02-18 02:42:00,-999.0,-99.9,29.93,ESE,118,4.0,6.0,-999,-99.99,,,-99.99,,2013-02-18 08:42:00,
2013-02-18 03:03:00,22.0,-99.9,29.93,East,101,3.0,3.0,-999,-99.99,,,-99.99,,2013-02-18 09:03:00,
2013-02-18 04:01:00,-999.0,-99.9,-100.00,SE,142,19.0,22.0,-999,-99.99,,,-99.99,,2013-02-18 10:01:00,
2013-02-18 04:12:00,-999.0,-99.9,29.83,SE,142,19.0,22.0,-999,-99.99,,,-99.99,,2013-02-18 10:12:00,
2013-02-18 04:32:00,30.0,-99.9,29.83,SSE,151,17.0,22.0,-999,-99.99,,,-99.99,,2013-02-18 10:32:00,
2013-02-18 05:02:00,30.0,-99.9,29.82,SSE,150,17.0,19.0,-999,-99.99,,,-99.99,,2013-02-18 11:02:00,
2013-02-18 05:33:00,30.0,-99.9,29.81,SSE,147,18.0,22.0,-999,-99.99,,,-99.99,,2013-02-18 11:33:00,
2013-02-18 06:02:00,-999.0,-99.9,-100.00,SE,142,17.0,20.0,-999,-99.99,,,-99.99,,2013-02-18 12:02:00,
2013-02-18 06:12:00,-999.0,-99.9,29.78,SE,142,17.0,20.0,-999,-99.99,,,-99.99,,2013-02-18 12:12:00,
2013-02-18 06:32:00,27.0,-99.9,29.78,SE,142,14.0,16.0,-999,-99.99,,,-99.99,,2013-02-18 12:32:00,
2013-02-18 07:33:00,-999.0,-99.9,-100.00,SE,143,14.0,15.0,-999,-99.99,,,-99.99,,2013-02-18 13:33:00,
2013-02-18 07:43:00,-999.0,-99.9,29.76,SE,143,14.0,15.0,-999,-99.99,,,-99.99,,2013-02-18 13:43:00,
2013-02-18 08:02:00,24.0,-99.9,29.76,SE,142,12.0,13.0,-999,-99.99,,,-99.99,,2013-02-18 14:02:00,
2013-02-18 09:02:00,-999.0,-99.9,-100.00,SSE,158,17.0,23.0,-999,-99.99,,,-99.99,,2013-02-18 15:02:00,
2013-02-18 09:12:00,-999.0,-99.9,29.71,SSE,158,17.0,23.0,-999,-99.99,,,-99.99,,2013-02-18 15:12:00,
2013-02-18 09:22:00,33.0,-99.9,29.70,North,-999,-999.0,-999.0,-999,-99.99,,,-99.99,,2013-02-18 15:22:00,
2013-02-18 09:32:00,-999.0,-99.9,-100.00,SSE,159,15.0,20.0,-999,-99.99,,,-99.99,,2013-02-18 15:32:00,
2013-02-18 09:42:00,33.0,-99.9,29.70,SSE,159,15.0,20.0,-999,-99.99,,,-99.99,,2013-02-18 15:42:00,
2013-02-18 09:53:00,34.0,-99.9,29.70,North,-999,-999.0,-999.0,-999,-99.99,,,-99.99,,2013-02-18 15:53:00,
2013-02-18 10:03:00,34.0,-99.9,29.70,SSE,168,14.0,19.0,-999,-99.99,,,-99.99,,2013-02-18 16:03:00,
2013-02-18 10:12:00,34.0,-99.9,29.70,North,-999,-999.0,-999.0,-999,-99.99,,,-99.99,,2013-02-18 16:12:00,
2013-02-18 10:23:00,35.0,-99.9,29.70,North,-999,-999.0,-999.0,-999,-99.99,,,-99.99,,2013-02-18 16:23:00,
2013-02-18 10:33:00,35.0,-99.9,29.69,South,171,13.0,16.0,-999,-99.99,,,-99.99,,2013-02-18 16:33:00,
2013-02-18 10:43:00,35.0,-99.9,29.68,North,-999,-999.0,-999.0,-999,-99.99,,,-99.99,,2013-02-18 16:43:00,
2013-02-18 10:53:00,35.0,-99.9,29.67,North,-999,-999.0,-999.0,-999,-99.99,,,-99.99,,2013-02-18 16:53:00,
2013-02-18 11:04:00,-999.0,-99.9,-100.00,South,171,14.0,20.0,-999,-99.99,,,-99.99,,2013-02-18 17:04:00,
2013-02-18 11:13:00,36.0,-99.9,29.67,South,171,14.0,20.0,-999,-99.99,,,-99.99,,2013-02-18 17:13:00,
2013-02-18 11:23:00,35.0,-99.9,29.65,North,-999,-999.0,-999.0,-999,-99.99,,,-99.99,,2013-02-18 17:23:00,
2013-02-18 11:33:00,36.0,-99.9,29.65,South,170,13.0,18.0,-999,-99.99,,,-99.99,,2013-02-18 17:33:00,
2013-02-18 11:43:00,36.0,-99.9,29.65,North,-999,-999.0,-999.0,-999,-99.99,,,-99.99,,2013-02-18 17:43:00,
2013-02-18 11:53:00,36.0,-99.9,29.65,North,-999,-999.0,-999.0,-999,-99.99,,,-99.99,,2013-02-18 17:53:00,
2013-02-18 12:03:00,36.0,-99.9,29.63,North,-999,-999.0,-999.0,-999,-99.99,,,-99.99,,2013-02-18 18:03:00,
2013-02-18 12:13:00,36.0,-99.9,29.63,North,-999,-999.0,-999.0,-999,-99.99,,,-99.99,,2013-02-18 18:13:00,
2013-02-18 12:23:00,37.0,-99.9,29.63,North,-999,-999.0,-999.0,-999,-99.99,,,-99.99,,2013-02-18 18:23:00,
2013-02-18 12:33:00,-999.0,-99.9,-100.00,South,169,11.0,19.0,-999,-99.99,,,-99.99,,2013-02-18 18:33:00,
2013-02-18 12:43:00,36.0,-99.9,29.62,South,169,11.0,19.0,-999,-99.99,,,-99.99,,2013-02-18 18:43:00,
2013-02-18 12:53:00,36.0,-99.9,29.61,North,-999,-999.0,-999.0,-999,-99.99,,,-99.99,,2013-02-18 18:53:00,
2013-02-18 13:03:00,36.0,-99.9,29.61,South,171,13.0,18.0,-999,-99.99,,,-99.99,,2013-02-18 19:03:00,
2013-02-18 13:13:00,36.0,-99.9,29.60,North,-999,-999.0,-999.0,-999,-99.99,,,-99.99,,2013-02-18 19:13:00,
2013-02-18 13:23:00,37.0,-99.9,29.59,North,-999,-999.0,-999.0,-999,-99.99,,,-99.99,,2013-02-18 19:23:00,
2013-02-18 13:34:00,36.0,-99.9,29.59,North,-999,-999.0,-999.0,-999,-99.99,,,-99.99,,2013-02-18 19:34:00,
2013-02-18 13:43:00,37.0,-99.9,29.58,North,-999,-999.0,-999.0,-999,-99.99,,,-99.99,,2013-02-18 19:43:00,
2013-02-18 13:53:00,36.0,-99.9,29.58,North,-999,-999.0,-999.0,-999,-99.99,,,-99.99,,2013-02-18 19:53:00,
2013-02-18 14:03:00,-999.0,-99.9,-100.00,SSE,167,12.0,17.0,-999,-99.99,,,-99.99,,2013-02-18 20:03:00,
2013-02-18 14:13:00,36.0,-99.9,29.57,SSE,167,12.0,17.0,-999,-99.99,,,-99.99,,2013-02-18 20:13:00,
2013-02-18 14:23:00,36.0,-99.9,29.57,North,-999,-999.0,-999.0,-999,-99.99,,,-99.99,,2013-02-18 20:23:00,
2013-02-18 14:34:00,36.0,-99.9,29.57,South,173,10.0,13.0,-999,-99.99,,,-99.99,,2013-02-18 20:34:00,
2013-02-18 14:43:00,36.0,-99.9,29.57,North,-999,-999.0,-999.0,-999,-99.99,,,-99.99,,2013-02-18 20:43:00,
2013-02-18 14:53:00,36.0,-99.9,29.57,North,-999,-999.0,-999.0,-999,-99.99,,,-99.99,,2013-02-18 20:53:00,
2013-02-18 15:03:00,36.0,-99.9,29.57,North,-999,-999.0,-999.0,-999,-99.99,,,-99.99,,2013-02-18 21:03:00,
2013-02-18 15:12:00,36.0,-99.9,29.57,North,-999,-999.0,-999.0,-999,-99.99,,,-99.99,,2013-02-18 21:12:00,
2013-02-18 15:23:00,35.0,-99.9,29.56,North,-999,-999.0,-999.0,-999,-99.99,,,-99.99,,2013-02-18 21:23:00,
2013-02-18 15:33:00,-999.0,-99.9,-100.00,SSE,155,11.0,14.0,-999,-99.99,,,-99.99,,2013-02-18 21:33:00,
2013-02-18 15:43:00,35.0,-99.9,29.55,SSE,155,11.0,14.0,-999,-99.99,,,-99.99,,2013-02-18 21:43:00,
2013-02-18 15:53:00,36.0,-99.9,29.54,North,-999,-999.0,-999.0,-999,-99.99,,,-99.99,,2013-02-18 21:53:00,
2013-02-18 16:03:00,36.0,-99.9,29.54,SSE,151,16.0,20.0,-999,-99.99,,,-99.99,,2013-02-18 22:03:00,
2013-02-18 16:13:00,36.0,-99.9,29.54,North,-999,-999.0,-999.0,-999,-99.99,,,-99.99,,2013-02-18 22:13:00,
2013-02-18 16:23:00,35.0,-99.9,29.54,North,-999,-999.0,-999.0,-999,-99.99,,,-99.99,,2013-02-18 22:23:00,
2013-02-18 16:33:00,36.0,-99.9,29.55,North,-999,-999.0,-999.0,-999,-99.99,,,-99.99,,2013-02-18 22:33:00,
2013-02-18 16:44:00,36.0,-99.9,29.54,North,-999,-999.0,-999.0,-999,-99.99,,,-99.99,,2013-02-18 22:44:00,
2013-02-18 16:54:00,35.0,-99.9,29.54,North,-999,-999.0,-999.0,-999,-99.99,,,-99.99,,2013-02-18 22:54:00,
2013-02-18 17:03:00,-999.0,-99.9,-100.00,SSW,199,6.0,9.0,-999,-99.99,,,-99.99,,2013-02-18 23:03:00,
2013-02-18 17:12:00,35.0,-99.9,29.51,SSW,199,6.0,9.0,-999,-99.99,,,-99.99,,2013-02-18 23:12:00,
2013-02-18 17:23:00,35.0,-99.9,29.51,North,-999,-999.0,-999.0,-999,-99.99,,,-99.99,,2013-02-18 23:23:00,
2013-02-18 17:34:00,35.0,-99.9,29.53,SSW,201,6.0,7.0,-999,-99.99,,,-99.99,,2013-02-18 23:34:00,
2013-02-18 17:43:00,36.0,-99.9,29.53,North,-999,-999.0,-999.0,-999,-99.99,,,-99.99,,2013-02-18 23:43:00,
2013-02-18 17:54:00,36.0,-99.9,29.53,North,-999,-999.0,-999.0,-999,-99.99,,,-99.99,,2013-02-18 23:54:00,
2013-02-18 18:03:00,36.0,-99.9,29.53,North,-999,-999.0,-999.0,-999,-99.99,,,-99.99,,2013-02-19 00:03:00,
2013-02-18 18:13:00,37.0,-99.9,29.53,North,-999,-999.0,-999.0,-999,-99.99,,,-99.99,,2013-02-19 00:13:00,
2013-02-18 18:23:00,36.0,-99.9,29.53,North,-999,-999.0,-999.0,-999,-99.99,,,-99.99,,2013-02-19 00:23:00,
2013-02-18 18:36:00,-999.0,-99.9,-100.00,SSW,192,4.0,5.0,-999,-99.99,,,-99.99,,2013-02-19 00:36:00,
2013-02-18 18:44:00,37.0,-99.9,29.53,SSW,192,4.0,5.0,-999,-99.99,,,-99.99,,2013-02-19 00:44:00,
2013-02-18 18:55:00,37.0,-99.9,29.52,North,-999,-999.0,-999.0,-999,-99.99,,,-99.99,,2013-02-19 00:55:00,
2013-02-18 19:03:00,37.0,-99.9,29.52,South,186,4.0,6.0,-999,-99.99,,,-99.99,,2013-02-19 01:03:00,
2013-02-18 19:15:00,36.0,-99.9,29.52,North,-999,-999.0,-999.0,-999,-99.99,,,-99.99,,2013-02-19 01:15:00,
2013-02-18 19:25:00,36.0,-99.9,29.52,North,-999,-999.0,-999.0,-999,-99.99,,,-99.99,,2013-02-19 01:25:00,
2013-02-18 19:35:00,36.0,-99.9,29.52,North,-999,-999.0,-999.0,-999,-99.99,,,-99.99,,2013-02-19 01:35:00,
2013-02-18 19:46:00,36.0,-99.9,29.51,North,-999,-999.0,-999.0,-999,-99.99,,,-99.99,,2013-02-19 01:46:00,
2013-02-18 19:57:00,36.0,-99.9,29.51,North,-999,-999.0,-999.0,-999,-99.99,,,-99.99,,2013-02-19 01:57:00,
2013-02-18 20:04:00,-999.0,-99.9,-100.00,West,277,4.0,6.0,-999,-99.99,,,-99.99,,2013-02-19 02:04:00,
2013-02-18 20:14:00,36.0,-99.9,29.49,West,277,4.0,6.0,-999,-99.99,,,-99.99,,2013-02-19 02:14:00,
2013-02-18 20:23:00,35.0,-99.9,29.49,North,-999,-999.0,-999.0,-999,-99.99,,,-99.99,,2013-02-19 02:23:00,
2013-02-18 20:36:00,-999.0,-99.9,-100.00,NW,324,5.0,5.0,-999,-99.99,,,-99.99,,2013-02-19 02:36:00,
2013-02-18 20:44:00,33.0,-99.9,29.47,NW,324,5.0,5.0,-999,-99.99,,,-99.99,,2013-02-19 02:44:00,
2013-02-18 21:08:00,33.0,-99.9,29.47,North,350,4.0,5.0,-999,-99.99,,,-99.99,,2013-02-19 03:08:00,
2013-02-18 21:15:00,33.0,-99.9,29.46,North,-999,-999.0,-999.0,-999,-99.99,,,-99.99,,2013-02-19 03:15:00,
2013-02-18 21:25:00,34.0,-99.9,29.46,North,-999,-999.0,-999.0,-999,-99.99,,,-99.99,,2013-02-19 03:25:00,
2013-02-18 21:36:00,-999.0,-99.9,-100.00,NNW,330,4.0,5.0,-999,-99.99,,,-99.99,,2013-02-19 03:36:00,
2013-02-18 21:46:00,33.0,-99.9,29.45,NNW,330,4.0,5.0,-999,-99.99,,,-99.99,,2013-02-19 03:46:00,
2013-02-18 21:55:00,33.0,-99.9,29.45,North,-999,-999.0,-999.0,-999,-99.99,,,-99.99,,2013-02-19 03:55:00,
2013-02-18 22:03:00,-999.0,-99.9,-100.00,North,355,5.0,6.0,-999,-99.99,,,-99.99,,2013-02-19 04:03:00,
2013-02-18 22:15:00,33.0,-99.9,29.44,North,355,5.0,6.0,-999,-99.99,,,-99.99,,2013-02-19 04:15:00,
2013-02-18 22:24:00,33.0,-99.9,29.44,North,-999,-999.0,-999.0,-999,-99.99,,,-99.99,,2013-02-19 04:24:00,
2013-02-18 22:34:00,33.0,-99.9,29.43,North,350,6.0,7.0,-999,-99.99,,,-99.99,,2013-02-19 04:34:00,
2013-02-18 22:45:00,32.0,-99.9,29.43,North,-999,-999.0,-999.0,-999,-99.99,,,-99.99,,2013-02-19 04:45:00,
2013-02-18 23:23:00,32.0,-99.9,29.40,North,-999,-999.0,-999.0,-999,-99.99,,,-99.99,,2013-02-19 05:23:00,
2013-02-18 23:33:00,-999.0,-99.9,-100.00,NW,318,10.0,12.0,-999,-99.99,,,-99.99,,2013-02-19 05:33:00,
2013-02-18 23:43:00,32.0,-99.9,29.40,NW,318,10.0,12.0,-999,-99.99,,,-99.99,,2013-02-19 05:43:00,
2013-02-18 23:53:00,32.0,-99.9,29.40,North,-999,-999.0,-999.0,-999,-99.99,,,-99.99,,2013-02-19 05:53:00,